Weather History for Fairbanks Eiels, AK

Change the Weather History Date:

Wednesday, October 19, 2011

  Actual Average Record
Temperature  
Mean Temperature 22 °F -  
Max Temperature 29 °F 26 °F 56 °F (2013)
Min Temperature 17 °F 11 °F -18 °F (1992)
Degree Days  
Heating Degree Days 42    
Moisture  
Dew Point 24 °F    
Average Humidity 92    
Maximum Humidity 100    
Minimum Humidity 86    
Precipitation  
Precipitation 0.02 in - - ()
Sea Level Pressure  
Sea Level Pressure 29.76 in    
Wind  
Wind Speed 3 mph (SSW)    
Max Wind Speed 6 mph    
Max Gust Speed -    
Visibility 6 miles    
Events Fog , Snow    
Averages and records for this station are not official NWS values.
T = Trace of Precipitation, MM = Missing Value Source: NWS Daily Summary

Daily Weather History Graph

Daily Weather History Graph

Search for Another Location

Airport:

Trip Planner

Search our weather history database for the weather conditions in past years. The results will help you decide how hot, cold, wet, or windy it might be!

Date:

Astronomy

Oct. 19, 2011 Rise Set
Actual Time 8:52 AM AKDT 6:12 PM AKDT
Civil Twilight 8:02 AM AKDT 7:03 PM AKDT
Nautical Twilight 7:05 AM AKDT 7:59 PM AKDT
Astronomical Twilight 6:08 AM AKDT 8:56 PM AKDT
Moon 11:13 PM AKDT (10/19) 4:32 PM AKDT (10/19)
Length of Visible Light 11h 01m
Length of Day
9h 20m
Waning Gibbous, 53% of the Moon is Illuminated
Oct 19
Waning Gibbous
Oct 19
Last Quarter
Oct 26
New
Nov 2
First Quarter
Nov 10
Full

Hourly Weather History & Observations

Time (AKDT) Temp. Windchill Dew Point Humidity Pressure Visibility Wind Dir Wind Speed Gust Speed Precip Events Conditions
12:03 AM 28.4 °F 22.2 °F 26.6 °F 93% 29.73 in 10.0 mi SW 5.8 mph - N/A Snow Light Snow
12:04 AM 28.4 °F 22.2 °F 26.6 °F 93% 29.73 in 10.0 mi WSW 5.8 mph - N/A Snow Light Snow
12:23 AM 28.4 °F 23.3 °F 26.6 °F 93% 29.74 in 10.0 mi SW 4.6 mph - N/A Snow Light Snow
12:55 AM 28.6 °F 23.5 °F 26.6 °F 92% 29.74 in 10.0 mi SW 4.6 mph - 0.00 in   Overcast
12:56 AM 28.4 °F 23.3 °F 26.6 °F 93% 29.74 in 10.0 mi SW 4.6 mph - N/A   Overcast
1:55 AM 28.6 °F 24.8 °F 26.6 °F 92% 29.74 in 9.0 mi WSW 3.5 mph - 0.00 in Snow Light Snow
2:10 AM 28.4 °F - 26.6 °F 93% 29.74 in 7.0 mi Calm Calm - N/A Snow Light Snow
2:20 AM 28.4 °F - 26.6 °F 93% 29.75 in 8.0 mi Calm Calm - N/A Snow Light Snow
2:55 AM 28.2 °F 23.1 °F 26.4 °F 93% 29.75 in 5.0 mi South 4.6 mph - 0.01 in Snow Light Snow
3:00 AM 28.4 °F 23.3 °F 26.6 °F 93% 29.75 in 5.0 mi South 4.6 mph - N/A Snow Light Snow
3:11 AM 28.4 °F 23.3 °F 26.6 °F 93% 29.75 in 3.0 mi South 4.6 mph - N/A Snow Light Snow
3:12 AM 28.4 °F 23.3 °F 26.6 °F 93% 29.75 in 2.5 mi South 4.6 mph - N/A Snow Light Snow
3:15 AM 28.4 °F 24.6 °F 26.6 °F 93% 29.75 in 2.5 mi South 3.5 mph - N/A Snow Light Snow
3:20 AM 28.4 °F 23.3 °F 26.6 °F 93% 29.75 in 2.5 mi South 4.6 mph - N/A Snow Light Snow
3:23 AM 28.4 °F 23.3 °F 26.6 °F 93% 29.75 in 2.0 mi South 4.6 mph - N/A Snow Light Snow
3:24 AM 28.4 °F 23.3 °F 26.6 °F 93% 29.75 in 2.0 mi South 4.6 mph - N/A Snow Light Snow
3:30 AM 28.4 °F 23.3 °F 26.6 °F 93% 29.75 in 2.5 mi South 4.6 mph - N/A Snow Light Snow
3:32 AM 28.4 °F 23.3 °F 26.6 °F 93% 29.75 in 2.5 mi South 4.6 mph - N/A Snow Light Snow
3:33 AM 28.4 °F 23.3 °F 26.6 °F 93% 29.75 in 2.5 mi South 4.6 mph - N/A Snow Light Snow
3:34 AM 28.4 °F 23.3 °F 26.6 °F 93% 29.75 in 3.0 mi South 4.6 mph - N/A Snow Light Snow
3:38 AM 28.4 °F 24.6 °F 26.6 °F 93% 29.75 in 4.0 mi South 3.5 mph - N/A Snow Light Snow
3:52 AM 28.4 °F 23.3 °F 26.6 °F 93% 29.75 in 7.0 mi SSW 4.6 mph - N/A Snow Light Snow
3:53 AM 28.4 °F 24.6 °F 26.6 °F 93% 29.75 in 7.0 mi SSW 3.5 mph - N/A Snow Light Snow
3:55 AM 28.2 °F 23.1 °F 26.2 °F 92% 29.75 in 7.0 mi South 4.6 mph - 0.00 in Snow Light Snow
4:21 AM 28.4 °F 23.3 °F 26.6 °F 93% 29.75 in 7.0 mi South 4.6 mph - N/A Snow Light Snow
4:42 AM 28.4 °F - 24.8 °F 86% 29.75 in 4.0 mi Calm Calm - N/A Snow Light Snow
4:43 AM 28.4 °F 24.6 °F 24.8 °F 86% 29.75 in 4.0 mi SSW 3.5 mph - N/A Snow Light Snow
4:46 AM 28.4 °F 24.6 °F 24.8 °F 86% 29.75 in 4.0 mi SSW 3.5 mph - N/A Snow Light Snow
4:55 AM 27.5 °F 22.2 °F 25.7 °F 93% 29.75 in 4.0 mi South 4.6 mph - 0.01 in Snow Light Snow
4:56 AM 26.6 °F 22.6 °F 26.6 °F 100% 29.75 in 4.0 mi South 3.5 mph - N/A Snow Light Snow
5:06 AM 26.6 °F 21.2 °F 24.8 °F 93% 29.75 in 4.0 mi South 4.6 mph - N/A Snow Light Snow
5:16 AM 26.6 °F 21.2 °F 24.8 °F 93% 29.75 in 4.0 mi South 4.6 mph - N/A Snow Light Snow
5:43 AM 28.4 °F 22.2 °F 24.8 °F 86% 29.75 in 8.0 mi SSW 5.8 mph - N/A Snow Light Snow
5:55 AM 27.3 °F 20.9 °F 25.3 °F 92% 29.75 in 10.0 mi South 5.8 mph - 0.00 in   Overcast
6:26 AM 26.6 °F 20.0 °F 24.8 °F 93% 29.75 in 10.0 mi South 5.8 mph - N/A   Overcast
6:55 AM 26.8 °F 21.4 °F 25.0 °F 93% 29.75 in 10.0 mi Variable 4.6 mph - N/A   Overcast
7:22 AM 26.6 °F - 24.8 °F 93% 29.75 in 10.0 mi Calm Calm - N/A   Overcast
7:28 AM 26.6 °F - 24.8 °F 93% 29.75 in 10.0 mi Calm Calm - N/A   Overcast
7:42 AM 26.6 °F - 24.8 °F 93% 29.75 in 10.0 mi Calm Calm - N/A   Overcast
7:55 AM 26.6 °F 21.2 °F 24.3 °F 91% 29.76 in 10.0 mi Variable 4.6 mph - N/A   Overcast
8:55 AM 26.1 °F - 24.1 °F 92% 29.76 in 10.0 mi Calm Calm - N/A   Overcast
9:43 AM 24.8 °F 19.1 °F 23.0 °F 93% 29.77 in 10.0 mi Variable 4.6 mph - N/A   Overcast
9:55 AM 25.2 °F 19.5 °F 23.7 °F 94% 29.77 in 8.0 mi Variable 4.6 mph - 0.00 in   Overcast
10:31 AM 24.8 °F 19.1 °F 23.0 °F 93% 29.74 in 4.0 mi South 4.6 mph - N/A   Overcast
10:55 AM 25.3 °F 19.7 °F 23.9 °F 94% 29.78 in 1.8 mi Variable 4.6 mph - N/A   Overcast
11:50 AM 26.6 °F 22.6 °F 24.8 °F 93% 29.79 in 5.0 mi Variable 3.5 mph - N/A   Overcast
11:55 AM 26.2 °F - 24.3 °F 92% 29.79 in 10.0 mi Calm Calm - N/A   Overcast
12:07 PM 26.6 °F - 24.8 °F 93% 29.79 in 10.0 mi Calm Calm - N/A   Overcast
12:16 PM 26.6 °F - 24.8 °F 93% 29.79 in 10.0 mi Calm Calm - N/A   Overcast
12:28 PM 26.6 °F - 24.8 °F 93% 29.78 in 10.0 mi Calm Calm - N/A   Overcast
12:55 PM 27.0 °F - 25.0 °F 92% 29.78 in 10.0 mi Calm Calm - N/A   Mostly Cloudy
1:33 PM 26.6 °F - 24.8 °F 93% 29.79 in 10.0 mi Calm Calm - N/A   Mostly Cloudy
1:55 PM 28.4 °F - 25.5 °F 89% 29.79 in 10.0 mi Calm Calm - N/A   Overcast
2:40 PM 28.4 °F 24.6 °F 24.8 °F 86% 29.79 in 10.0 mi WNW 3.5 mph - N/A   Mostly Cloudy
2:55 PM 27.5 °F 22.2 °F 24.8 °F 90% 29.79 in 10.0 mi Variable 4.6 mph - N/A   Mostly Cloudy
3:12 PM 26.6 °F 22.6 °F 24.8 °F 93% 29.79 in 10.0 mi Variable 3.5 mph - N/A   Mostly Cloudy
3:55 PM 27.1 °F 21.8 °F 24.6 °F 90% 29.78 in 10.0 mi North 4.6 mph - N/A   Mostly Cloudy
4:47 PM 26.6 °F 21.2 °F 23.0 °F 86% 29.75 in 10.0 mi NNW 4.6 mph - N/A   Mostly Cloudy
4:55 PM 26.8 °F - 24.3 °F 90% 29.78 in 10.0 mi Calm Calm - N/A   Mostly Cloudy
5:55 PM 25.5 °F 19.9 °F 23.5 °F 92% 29.78 in 10.0 mi North 4.6 mph - N/A   Mostly Cloudy
6:55 PM 25.2 °F 18.3 °F 23.2 °F 92% 29.77 in 10.0 mi North 5.8 mph - N/A   Mostly Cloudy
7:55 PM 24.8 °F 20.5 °F 23.4 °F 94% 29.78 in 10.0 mi North 3.5 mph - N/A   Mostly Cloudy
8:55 PM 23.4 °F - 21.9 °F 94% 29.78 in 10.0 mi Calm Calm - N/A   Scattered Clouds
9:07 PM 23.0 °F - 19.4 °F 86% 29.78 in 2.0 mi Calm Calm - N/A   Clear
9:24 PM 21.2 °F - 19.4 °F 93% 29.78 in 1.0 mi Calm Calm - N/A   Clear
9:41 PM 21.2 °F - 19.4 °F 93% 29.78 in 0.5 mi Calm Calm - N/A Fog Light Freezing Fog
9:55 PM 19.6 °F - 17.2 °F 91% 29.78 in 0.5 mi Calm Calm - N/A Fog Light Freezing Fog
10:12 PM 17.6 °F - 15.8 °F 93% 29.78 in 1.5 mi Calm Calm - N/A   Clear
10:24 PM 17.6 °F - 14.0 °F 86% 29.78 in 1.0 mi Calm Calm - N/A   Clear
10:55 PM 18.7 °F - 16.2 °F 90% 29.78 in 0.5 mi Calm Calm - N/A Fog Light Freezing Fog
10:56 PM 19.4 °F - 15.8 °F 86% 29.78 in 0.8 mi Calm Calm - N/A   Mostly Cloudy
10:57 PM 19.4 °F - 15.8 °F 86% 29.77 in 0.8 mi Calm Calm - N/A   Mostly Cloudy
11:00 PM 19.4 °F - 17.6 °F 93% 29.78 in 1.0 mi Calm Calm - N/A   Mostly Cloudy
11:03 PM 19.4 °F - 17.6 °F 93% 29.77 in 1.2 mi Calm Calm - N/A   Overcast
11:05 PM 19.4 °F - 17.6 °F 93% 29.77 in 1.5 mi Calm Calm - N/A   Overcast
11:06 PM 19.4 °F - 17.6 °F 93% 29.77 in 1.5 mi Calm Calm - N/A   Overcast
11:09 PM 19.4 °F - 17.6 °F 93% 29.77 in 2.0 mi Calm Calm - N/A   Overcast
11:10 PM 19.4 °F - 17.6 °F 93% 29.77 in 2.5 mi Calm Calm - N/A   Overcast
11:11 PM 19.4 °F - 17.6 °F 93% 29.77 in 3.0 mi Calm Calm - N/A   Overcast
11:55 PM 20.3 °F - 18.1 °F 91% 29.77 in 10.0 mi Calm Calm - N/A   Overcast